Regional Weather Roundup
Issued by NWS

Home | Current Version | Previous Version | Graphics & Text | Print | Product List | Glossary On
Versions: 1 2 3 4 5 6 7 8 9 10 11 12 13 14 15 16 17 18 19 20 21 22 23 24 25 26 27 28 29 30 31 32 33 34 35 36 37 38 39 40 41 42 43 44 45 46 47 48 49 50
000
ASUS43 KTOP 031008
RWRKS

WEATHER ROUNDUP FOR KANSAS
NATIONAL WEATHER SERVICE GOODLAND KS
500 AM CDT SUN MAY 03 2015

NOTE:  "FAIR" INDICATES FEW OR NO CLOUDS BELOW 12,000 FEET WITH NO
SIGNIFICANT WEATHER AND/OR OBSTRUCTIONS TO VISIBILITY.

KSZ001>006-013>018-027>032-041>047-031100-
NORTHWEST KANSAS

CITY           SKY/WX    TMP DP  RH WIND       PRES   REMARKS
GOODLAND       MOCLDY    54  45  71 W9        29.82S
HAYS           CLOUDY    61  48  63 CALM      29.78S
HILL CITY      CLOUDY    58  48  69 NW3       29.75S
RUSSELL        CLOUDY    63  53  70 S13       29.75S
$$

KSZ061>065-074>080-084>089-031100-
SOUTHWEST KANSAS

CITY           SKY/WX    TMP DP  RH WIND       PRES   REMARKS
DODGE CITY     CLOUDY    62  48  60 S12       29.81S
ELKHART          N/A     56  43  62 W10         N/A
GARDEN CITY    CLOUDY    59  44  57 W13       29.83R
GREAT BEND     MOCLDY    63  52  67 S12       29.78S
LIBERAL        CLOUDY    63  43  48 S12       29.85S
PRATT          MOCLDY    61  52  72 S16       29.82F
$$

KSZ066>073-081>083-090>101-031100-
SOUTHEAST KANSAS

CITY           SKY/WX    TMP DP  RH WIND       PRES   REMARKS
CHANUTE        PTCLDY    62  52  69 S12       29.90S
COFFEYVILLE    PTCLDY    63  53  70 S12       29.92R
HUTCHINSON     CLOUDY    63  55  75 S9        29.82R
MEDICINE LODGE   N/A     62  56  80 S7        29.84R
NEWTON         CLOUDY    64  52  63 S17G26    29.85S
PARSONS        PTCLDY    61  53  75 S7        29.92S
WICHITA INTL   CLOUDY    63  55  75 S15       29.84S
WICHITA JABRA  CLOUDY    65  55  70 S17G26    29.84S
WICHITA MCCONL CLOUDY    64  56  75 S15       29.85S
WINFIELD       CLOUDY    65  55  70 S14       29.88S
$$

KSZ007>012-019>026-033>040-048>060-102>105-031100-
NORTHEAST KANSAS

CITY           SKY/WX    TMP DP  RH WIND       PRES   REMARKS
CONCORDIA      MOCLDY    64  54  69 S14       29.75R
EMPORIA        CLOUDY    61  54  77 S10       29.86R
LAWRENCE       CLOUDY    63  53  70 S5        29.90R
MANHATTAN      CLOUDY    66  57  72 S12G20    29.79S
MARYSVILLE     PTCLDY    64  55  72 S9        29.78R
OLATHE IND     CLOUDY    61  52  72 S8        29.91R
OLATHE EXE     CLOUDY    63  53  70 S8        29.90R
SALINA         CLOUDY    66  55  67 S13G22    29.76S
TOPEKA BILLARD LGT RAIN  64  57  78 S7        29.87R
TOPEKA FORBES  TSTM      64  57  78 S10       29.87S
$$



USA.gov is the U.S. government's official web portal to all federal, state and local government web resources and services.